Miscellaneous Local Product
Issued by NWS North Platte, NE

Home | Current Version | Previous Version | Text Only | Print | Product List | Glossary On
Versions: 1 2 3 4 5 6 7 8 9 10 11 12 13 14 15 16 17 18 19 20 21 22 23 24 25 26 27 28 29 30 31 32 33 34 35 36 37 38 39 40 41 42 43 44 45 46 47 48 49 50
798
AXUS43 KLBF 260710
MISLBF


WESTERN AND NORTH CENTRAL NEBRASKA HOURLY WEATHER ROUNDUP
NATIONAL WEATHER SERVICE NORTH PLATTE NE
100 AM CST SUN FEB 26 2017

NOTE: "FAIR" INDICATES FEW OR NO CLOUDS BELOW 12,000 FEET WITH NO
SIGNIFICANT WEATHER AND/OR OBSTRUCTIONS TO VISIBILITY.

NOTE: STATIONS NOT REPORTING VARIABLES SUCH AS SKY/WEATHER OR
PRESSURE ARE PROVIDED BY RAWS AND APRS NETWORKS AND ARE NOT UNDER
NATIONAL WEATHER SERVICE QUALITY CONTROL.

...OBSERVATIONS IN AND NEAR THE EASTERN PANHANDLE OF NEBRASKA...

CITY           SKY/WX    TMP DP  RH WIND       PRES   REMARKS
PINE RIDGE     CLEAR     14   6  70 W3        29.77R
CHADRON        CLEAR     14   4  64 S9G21     29.78S WCI   2
ALLIANCE       CLEAR      1  -3  83 W10       29.76S WCI -15
SIDNEY         CLEAR     17   6  62 W16       29.82R WCI   2
CRESCENT LAKE    N/A     20   8  59 W9          N/A  WCI   9
$$

...OBSERVATIONS IN NORTHERN NEBRASKA AND FAR SOUTHERN SOUTH DAKOTA...

CITY           SKY/WX    TMP DP  RH WIND       PRES   REMARKS
WINNER         FAIR      21  12  68 SW10      29.75S WCI  10
VALENTINE      CLEAR     10   3  73 W7        29.76R WCI  -1
THEDFORD       CLEAR     20  11  67 W12       29.79S WCI   9
AINSWORTH      CLEAR     17  10  75 SW12      29.75F WCI   4
O`NEILL        CLEAR     22  15  76 W7        29.78F WCI  13
ORD            CLEAR     23  13  65 SW15      29.82S WCI  10
BROKEN BOW     CLEAR     20  12  71 W6        29.82S WCI  12
VALENTINE NWR    N/A     19  10  68 SW9         N/A  WCI   8
BUTTE            N/A     19  15  85 SW6         N/A  WCI  11
HALSEY           N/A     16   8  70 SW5         N/A  WCI   9
CHAMBERS         N/A     19  10  68 W6          N/A  WCI  11
EWING            N/A     20  15  81 W7          N/A  WCI  11
$$

...OBSERVATIONS IN SOUTHWEST NEBRASKA AND FAR NORTHEAST COLORADO...

CITY           SKY/WX    TMP DP  RH WIND       PRES   REMARKS
HOLYOKE        FAIR      25  18  74 W9        29.85S WCI  15
IMPERIAL       PTCLDY    24  15  68 SW9       29.85S WCI  14
OGALLALA       CLEAR     15  12  87 SW6       29.84S WCI   7
NORTH PLATTE   CLEAR     19  13  77 W8        29.84S WCI   9
MCCOOK         PTCLDY    25  15  66 SW8       29.87S WCI  16
LEXINGTON      PTCLDY    23  15  72 SW6       29.85F WCI  16
STAPLETON        N/A     19  14  79 CALM        N/A
GOTHENBURG       N/A     24  15  67 CALM        N/A
CALLAWAY         N/A     24  15  68 W12         N/A  WCI  13
$$

...OBSERVATIONS IN CENTRAL LINCOLN COUNTY AREA...

CITY           SKY/WX    TMP DP  RH WIND       PRES   REMARKS
N.P. AIRPORT   CLEAR     19  13  77 W8        29.84S WCI   9
N.P. DOWNTOWN    N/A     18  11  74 W3          N/A
N.P. SOUTHEAST   N/A     22  13  68 W3G12       N/A
N.P. HILLCREST   N/A     21  16  79 W3          N/A
$$

...SOME OBSERVATIONS FROM AROUND THE REGION...

CITY           SKY/WX    TMP DP  RH WIND       PRES   REMARKS
LARAMIE        CLEAR     11   0  61 W18       29.71R WCI  -7
CHEYENNE       CLEAR     13   1  59 W10       29.75S WCI   0
DENVER         CLEAR     22   5  48 SW5       29.76F WCI  16
AKRON          CLEAR     20  12  71 S6        29.81F WCI  12
SCOTTSBLUFF    CLEAR     10   3  73 NW8       29.80S WCI  -2
RAPID CITY     CLEAR     17  10  74 W9        29.71S WCI   6
BISMARCK       CLEAR     19  14  81 N9        29.70R WCI   8
PIERRE         PTCLDY    25  19  78 W9        29.72S WCI  15
SIOUX FALLS    CLEAR     21  17  84 SW3       29.76F
OMAHA          MOCLDY    35  23  61 SW12      29.87F WCI  27
GRAND ISLAND   PTCLDY    28  20  71 SW10      29.87R WCI  19
KANSAS CITY    CLEAR     35  14  42 S15       29.97F WCI  25
WICHITA        CLOUDY    34  19  54 SE9       29.96F WCI  27
OKLAHOMA CITY  PTCLDY    34  20  56 S10       29.99F WCI  26
DALLAS         MOCLDY    43  27  53 E6        30.03F
AMARILLO       CLEAR     34  22  61 S14       29.86F WCI  25
DODGE CITY     PTCLDY    32  15  49 S15       29.87S WCI  22
HAYS           CLOUDY    30  15  53 E5        29.91F WCI  25
GOODLAND       CLOUDY    17   9  70 CALM      29.84F
$$




USA.gov is the U.S. government's official web portal to all federal, state and local government web resources and services.